{"data":{"norad_id":59361,"epoch":"2026-05-25T03:26:36.591648Z","epoch_age_seconds":55929,"freshness":"FRESH","line1":"1 59361U 24060P   26145.14347907 -.00004349  00000+0 -14861-3 0  9993","line2":"2 59361  43.0000 188.2361 0001512 270.8033  89.2646 15.27575728121754","mean_motion":15.27575728,"eccentricity":0.0001512,"inclination_deg":43,"raan_deg":188.2361,"arg_perigee_deg":270.8033,"mean_anomaly_deg":89.2646,"bstar":-0.00014861,"rev_number":12175,"period_min":94.267012338913,"perigee_km":482.02447470245,"apogee_km":484.09930124617,"semimajor_km":6861.1988879743,"source":"CELESTRAK","updated_at":"2026-05-25T13:38:18.910917Z"}}